Temperature
14 13 12 12 12 14 15 14 13 13 13 13 13 12 12 13 13 14 14 15 16 16 16 17 17 17 17 17 16 15 15 14 13 13 12 12 11 11 11 10 10 9 9 9
13 12 13 13 13 13 13 13 13 12 13 13 12 11 12 12 13 13 14 14 15 16 16 17 16 16 16 16 15 15 14 14 13 13 12 11 11 11 10 10 10 10 9 9
13 14 14 13 13 13 13 13 13 13 13 12 12 13 13 13 13 13 14 14 15 15 15 16 16 15 15 15 15 14 14 13 13 12 11 11 11 11 10 10 10 9 9 9
12 12 13 14 14 13 13 13 13 13 13 11 12 12 13 13 13 13 13 14 14 14 15 15 15 15 14 14 14 14 13 13 12 12 11 11 11 10 10 10 9 9 9 8
13 14 14 14 14 13 13 14 13 13 12 11 11 11 11 12 13 13 13 13 14 14 14 14 14 14 13 13 13 13 13 12 12 11 11 11 11 10 10 10 9 9 9 8
13 14 15 14 14 13 13 12 11 9 9 11 12 11 12 11 12 12 12 13 13 14 14 13 13 13 13 13 12 12 12 12 11 11 11 10 10 10 10 9 9 9 9 8
14 14 14 14 14 13 13 12 12 13 11 12 11 10 11 12 11 11 12 13 13 13 13 13 13 12 12 12 12 11 11 11 11 11 10 10 10 9 9 9 8 8 8 8
14 14 14 13 14 13 13 12 13 13 12 11 11 10 11 11 10 11 13 14 13 13 13 13 12 12 11 11 11 11 11 10 10 10 10 9 9 8 8 8 8 7 7 7
12 13 13 13 13 12 12 11 11 10 11 10 10 10 10 11 10 10 11 12 13 13 12 12 11 11 11 11 10 10 10 10 9 9 9 8 8 8 7 7 7 7 7 6
12 14 14 13 13 12 12 10 9 10 11 11 11 10 11 12 11 10 10 12 13 12 12 11 11 11 10 10 10 10 9 9 8 8 8 7 7 7 6 6 6 6 6 6
12 13 13 13 12 12 11 11 10 9 9 10 11 11 11 11 11 10 10 12 12 12 11 11 10 10 10 10 9 9 8 8 7 7 7 6 6 6 6 6 6 6 5 5
11 11 11 12 12 11 11 11 9 11 10 8 8 10 11 10 10 10 11 11 11 11 11 10 10 10 9 9 9 8 8 7 7 6 6 6 6 5 5 5 5 5 5 5
10 11 12 13 11 11 11 10 9 9 8 6 8 11 10 9 9 10 10 11 10 10 10 10 9 9 9 8 8 7 7 6 6 6 5 5 5 5 5 5 5 4 4 4
11 10 11 12 12 11 11 10 9 9 8 7 7 10 10 10 9 9 9 10 10 9 9 9 9 8 8 7 7 6 6 5 5 5 5 5 4 4 4 4 4 4 4 3
11 11 11 11 12 11 11 11 9 9 9 9 9 9 10 9 8 9 9 9 9 9 8 8 8 7 7 6 6 5 5 5 4 4 4 4 4 4 4 3 3 3 3 2
9 10 10 10 10 9 9 9 9 9 9 8 9 9 9 8 8 8 8 8 8 8 8 7 7 6 5 5 5 4 4 4 4 4 4 3 3 3 3 3 3 2 2 1
8 8 9 8 9 9 8 9 9 8 7 8 8 8 7 6 7 8 8 8 8 7 7 6 5 5 5 4 4 4 4 4 3 3 3 3 3 3 2 2 2 1 1 1
7 8 7 7 8 9 10 10 9 8 8 7 7 7 6 7 8 8 8 8 7 6 6 5 5 4 4 4 3 3 3 3 3 3 3 2 2 2 2 1 1 1 0 -1
7 7 6 6 7 7 8 8 8 8 8 7 6 6 7 7 7 7 7 7 6 5 5 4 4 4 4 3 3 3 3 3 3 2 2 2 1 1 1 1 0 -0 -1 -1
6 7 6 5 6 7 9 9 9 8 8 7 6 5 6 6 5 5 7 6 5 5 4 4 4 4 3 3 3 3 3 2 2 2 1 1 1 0 -0 -0 -1 -1 -2 -3
6 6 6 5 6 7 8 9 9 8 8 7 7 7 6 5 5 6 5 5 4 4 4 3 3 3 3 2 2 2 2 2 1 1 1 1 0 -1 -1 -1 -2 -3 -3 -4
6 6 5 5 5 7 8 7 7 7 7 7 7 7 7 6 5 5 4 4 4 3 3 3 3 3 3 2 2 2 1 1 1 0 0 0 -0 -1 -2 -2 -2 -3 -4 -5
6 7 7 7 7 7 7 8 8 8 7 7 7 6 6 5 5 4 4 3 3 3 3 2 2 2 2 2 1 1 1 0 -0 -0 -0 -1 -1 -1 -2 -3 -4 -4 -5 -6
5 5 5 5 5 6 6 7 7 7 7 7 6 5 5 4 4 3 3 3 3 2 2 2 2 2 2 2 1 1 0 -0 -1 -1 -1 -1 -2 -2 -3 -4 -5 -5 -6 -6
6 4 4 4 5 5 5 6 6 6 6 5 5 4 4 3 3 3 2 2 2 2 2 1 1 1 1 1 1 0 -0 -1 -1 -2 -2 -2 -3 -3 -4 -5 -5 -6 -6 -6
4 4 4 5 5 4 5 6 6 6 5 4 4 3 3 3 2 2 2 2 2 2 1 1 1 1 0 0 0 -0 -1 -2 -2 -3 -3 -3 -4 -4 -5 -6 -6 -6 -6 -6
Wind_Speed
3 2 5 9 9 5 2 4 7 8 5 4 6 9 11 7 2 3 4 6 8 9 9 10 10 9 7 4 2 4 6 7 7 5 5 5 7 6 5 11 16 18 20 20
3 6 9 5 4 4 3 4 7 7 2 2 6 8 6 3 2 2 3 6 8 9 12 13 11 10 8 5 2 1 4 6 7 6 4 3 3 4 5 8 14 19 20 20
8 6 1 5 4 5 5 6 6 5 6 3 5 6 3 3 3 3 4 4 6 7 9 10 11 10 9 8 5 2 1 4 5 6 4 2 1 1 2 5 7 13 18 19
7 6 3 5 6 8 6 6 5 3 2 5 4 3 5 2 2 1 1 4 5 6 7 7 9 9 9 8 5 4 3 1 3 5 5 6 6 6 7 5 6 7 14 18
6 4 5 6 7 9 7 2 3 1 3 2 1 2 7 2 5 7 4 1 2 4 6 7 7 7 7 7 7 6 5 4 2 3 5 6 7 8 6 4 6 7 8 13
7 4 4 5 1 5 5 5 5 5 4 2 3 4 6 5 8 6 6 4 2 2 4 5 6 6 7 7 7 7 6 5 2 1 3 5 8 8 8 8 7 7 6 6
4 3 3 4 5 2 4 4 4 5 4 4 1 3 8 6 5 7 9 8 5 2 2 4 6 7 8 8 8 7 7 6 4 2 2 4 7 7 8 9 8 7 6 6
3 5 5 5 6 7 5 7 5 3 4 5 3 6 7 5 5 5 7 8 6 3 1 1 3 5 5 7 7 7 6 5 5 4 4 3 4 4 5 7 7 7 7 8
7 5 1 2 2 8 6 4 5 6 2 3 7 7 8 1 4 5 7 7 6 3 1 1 3 4 4 5 5 5 6 5 6 5 5 5 5 4 6 7 6 6 7 7
9 4 1 1 4 4 4 8 6 5 3 4 7 6 5 5 4 4 6 6 4 2 1 2 2 3 3 3 4 5 5 5 5 6 5 5 6 6 6 6 7 8 8 8
7 5 2 2 7 8 5 4 5 5 4 5 4 7 6 7 7 8 7 4 3 2 1 1 1 2 3 4 4 5 5 5 6 6 6 7 7 7 6 6 8 8 8 8
6 5 4 6 1 4 6 8 8 5 5 5 4 8 4 4 5 6 5 2 2 2 2 1 1 2 4 5 6 6 6 6 7 6 7 7 8 7 8 8 9 8 9 9
8 7 2 3 3 1 3 5 6 5 5 6 6 7 2 2 3 3 3 3 3 3 2 1 2 3 4 5 6 7 7 7 7 7 7 8 8 8 9 9 9 9 9 10
6 5 7 9 7 7 6 6 7 7 6 7 10 9 5 4 3 3 3 4 3 2 2 1 2 4 5 6 6 7 8 7 7 7 8 9 9 9 10 10 10 10 10 11
6 6 7 6 3 5 7 8 9 10 10 11 10 11 11 8 8 6 5 5 4 2 1 2 3 5 6 7 7 7 8 8 7 8 9 9 10 10 10 10 11 11 11 12
5 5 4 2 1 3 6 10 11 12 10 11 10 12 5 3 4 5 6 6 4 1 2 4 5 6 7 7 8 8 8 8 7 8 9 10 10 10 11 11 12 12 12 12
6 8 5 4 1 4 8 12 13 8 8 9 11 9 4 4 6 7 7 6 4 2 4 5 6 7 7 7 7 7 8 8 8 9 10 10 11 11 12 13 13 13 13 13
8 8 5 3 3 8 9 2 6 7 6 8 5 4 6 6 4 3 5 6 3 3 4 5 6 6 6 6 7 8 8 8 9 10 11 11 11 12 13 13 13 14 13 13
5 8 6 5 5 9 9 5 7 7 6 6 7 6 5 4 3 2 3 4 2 2 4 5 5 5 6 7 8 8 9 9 10 11 11 11 11 13 14 14 15 14 14 14
4 4 6 6 5 8 8 3 5 5 5 5 8 8 6 5 2 3 2 1 2 3 3 4 5 5 6 8 7 8 10 10 11 12 12 12 11 13 15 16 16 14 14 15
5 4 6 7 7 9 7 4 6 5 7 6 8 7 7 6 5 3 1 2 2 3 5 5 6 6 7 8 8 9 11 11 12 12 12 12 12 12 14 15 13 14 15 15
10 8 8 7 6 10 4 8 8 6 4 7 7 6 6 5 3 1 2 3 4 5 5 6 6 8 8 8 8 10 12 13 12 12 13 13 12 12 13 14 15 14 14 16
9 9 8 10 8 2 2 5 3 6 7 6 5 5 4 3 2 1 2 4 5 6 6 6 7 9 10 9 8 11 13 13 13 13 13 13 14 11 11 13 15 15 12 13
5 3 5 4 6 3 2 4 4 5 6 5 4 4 4 3 2 3 3 4 5 6 7 7 8 9 11 10 10 10 13 12 12 14 14 13 13 14 12 10 11 12 13 13
5 7 5 4 3 2 3 4 5 5 5 4 3 3 3 3 3 3 4 6 6 7 7 7 8 10 13 12 12 11 12 11 12 13 13 13 12 13 14 12 11 13 12 15
5 7 8 7 7 7 6 6 6 5 3 3 3 2 2 3 4 5 6 6 7 8 8 9 10 11 13 12 13 12 11 10 11 13 12 11 11 12 12 14 15 18 20 26
Wind_Direction
54 80 226 222 206 206 204 239 267 267 285 299 274 285 299 318 45 85 46 23 17 12 358 16 27 33 45 59 130 180 183 179 164 166 181 199 222 219 220 222 222 218 218 216
35 260 240 206 181 194 210 256 272 288 301 287 301 298 305 1 56 88 69 39 27 17 14 17 25 32 35 33 33 168 187 182 182 182 172 182 193 215 220 225 227 225 223 221
206 237 162 154 176 191 222 217 241 270 326 12 336 339 358 14 36 56 47 41 38 33 24 17 20 24 27 25 12 13 195 187 187 172 146 124 105 330 253 232 233 230 227 227
231 259 218 210 218 184 251 232 211 235 331 307 18 306 271 274 299 286 34 37 39 31 31 31 26 23 22 14 16 30 46 118 165 165 174 192 210 233 238 231 234 234 227 229
242 224 196 212 224 182 212 110 150 186 180 306 334 203 281 252 224 229 216 149 59 47 46 42 32 27 25 21 28 33 49 61 106 171 194 207 232 246 259 257 253 247 235 232
243 243 216 212 145 159 134 87 69 62 82 311 222 177 275 225 213 208 203 194 166 94 58 45 35 35 28 25 29 31 42 42 43 157 210 223 242 258 272 273 268 264 253 242
270 242 224 151 121 85 115 90 10 350 6 264 244 203 251 251 235 206 191 188 186 161 85 42 37 31 22 18 18 21 30 24 14 2 280 251 252 258 261 269 271 273 271 261
240 271 220 188 179 172 172 145 162 229 258 289 299 237 254 280 290 225 175 163 169 168 136 57 44 38 20 13 14 14 15 7 359 354 327 297 272 261 264 266 266 266 265 266
192 245 43 147 153 138 138 164 155 133 166 271 284 290 304 40 50 104 135 150 175 186 170 73 40 33 15 5 1 357 357 352 347 342 333 326 315 292 283 283 274 270 268 273
165 202 186 129 97 33 146 140 110 130 181 270 292 280 255 241 190 168 171 184 200 192 123 61 37 15 356 349 342 347 348 335 327 331 327 321 317 308 298 295 292 286 283 280
157 168 194 162 193 185 130 136 128 126 159 177 267 274 228 215 199 191 200 206 203 186 149 69 12 355 347 346 345 340 335 329 324 323 322 321 315 311 306 297 291 289 286 285
162 136 210 242 227 178 174 175 153 164 211 186 200 267 282 217 197 180 190 189 152 139 124 99 16 353 350 343 335 331 326 321 315 314 315 312 308 309 306 300 295 291 287 284
143 131 110 343 352 113 198 186 176 140 135 169 189 257 313 94 116 148 161 150 131 113 90 55 13 348 335 328 323 322 319 314 312 314 314 312 310 308 303 298 296 294 290 287
127 142 177 203 215 184 197 195 173 154 180 210 220 241 243 228 210 198 177 161 144 120 94 47 348 327 319 317 316 316 314 312 312 313 312 308 304 301 297 295 294 292 289 288
129 186 218 233 210 179 209 208 194 200 204 216 231 231 238 227 216 200 177 158 138 115 52 349 322 312 314 316 314 313 309 310 312 312 309 302 300 298 296 296 294 292 289 286
132 171 174 248 150 211 250 242 226 228 227 234 252 259 239 177 146 156 167 161 153 181 299 310 311 309 308 306 305 307 307 307 309 306 301 300 300 300 298 296 295 294 291 287
150 140 150 237 297 354 268 235 221 218 210 202 231 239 156 145 161 177 182 174 178 234 285 295 297 294 296 296 296 299 298 303 306 302 300 300 300 299 298 299 299 296 294 290
149 146 154 165 134 238 245 190 183 199 228 209 202 169 159 161 173 190 178 173 198 260 284 290 291 293 296 294 297 297 299 302 301 300 298 298 298 298 299 299 297 296 294 293
151 144 142 158 217 268 285 231 180 190 245 200 172 158 138 111 65 331 197 174 197 259 273 276 279 284 292 298 300 305 305 304 302 299 298 298 298 299 301 301 300 299 299 298
79 119 139 157 196 241 247 192 158 125 250 198 157 156 150 126 113 258 212 210 289 296 292 290 296 299 300 299 303 305 302 302 300 298 297 297 297 297 299 300 300 300 299 297
131 150 179 188 221 257 247 179 131 180 241 161 154 158 160 176 195 208 275 311 308 306 301 302 305 301 294 297 302 298 298 295 293 294 296 297 295 294 295 296 297 299 299 298
172 175 189 173 207 249 202 145 182 200 128 135 149 163 175 199 220 265 314 314 318 314 308 307 303 298 296 295 295 293 294 293 294 296 297 297 296 296 301 299 301 299 299 300
200 192 187 194 212 261 177 182 160 134 137 153 160 172 171 187 221 280 300 301 299 295 291 289 288 292 295 290 284 288 293 296 299 300 299 300 300 296 293 295 300 303 301 300
229 158 160 224 254 236 152 129 127 131 141 150 149 150 155 179 220 264 277 281 286 285 285 287 292 293 295 294 288 282 290 295 296 298 301 302 303 303 298 293 294 298 300 299
202 164 176 225 230 146 212 191 159 132 116 114 112 130 156 180 228 247 263 275 277 282 284 283 284 287 290 293 292 290 290 294 296 297 299 301 299 299 302 298 293 295 288 289
191 178 180 214 202 183 203 192 164 149 155 158 152 159 181 197 230 256 264 268 273 279 282 286 285 284 288 291 292 292 289 287 292 300 302 303 303 302 301 303 302 296 296 299
Height
1528 1533 1535 1532 1532 1531 1532 1534 1536 1532 1526 1525 1524 1522 1516 1512 1511 1512 1513 1512 1511 1510 1510 1508 1507 1506 1505 1505 1505 1505 1507 1508 1510 1512 1514 1516 1517 1519 1520 1521 1523 1524 1524 1525
1532 1533 1526 1526 1528 1530 1532 1535 1535 1530 1526 1526 1525 1522 1516 1513 1513 1513 1514 1513 1513 1512 1511 1510 1510 1508 1507 1507 1506 1506 1507 1508 1509 1511 1512 1513 1515 1515 1516 1517 1517 1518 1518 1518
1529 1525 1522 1525 1527 1530 1531 1533 1531 1529 1527 1526 1526 1521 1517 1515 1514 1515 1515 1514 1514 1513 1513 1513 1512 1511 1510 1509 1509 1508 1508 1508 1509 1510 1511 1511 1512 1512 1512 1512 1512 1512 1512 1511
1526 1522 1522 1523 1525 1527 1531 1525 1526 1527 1531 1535 1531 1534 1521 1517 1516 1515 1515 1515 1515 1515 1515 1515 1514 1514 1513 1512 1511 1510 1510 1509 1509 1510 1510 1510 1509 1509 1509 1508 1507 1507 1506 1505
1522 1519 1519 1521 1520 1521 1523 1522 1524 1527 1530 1536 1534 1536 1527 1518 1517 1516 1515 1515 1515 1516 1516 1516 1516 1516 1515 1514 1513 1512 1511 1511 1510 1510 1509 1509 1508 1506 1505 1504 1502 1501 1500 1498
1517 1515 1515 1515 1515 1518 1520 1525 1529 1535 1538 1538 1530 1536 1526 1520 1514 1513 1513 1514 1515 1516 1517 1517 1517 1517 1516 1516 1515 1513 1513 1512 1511 1510 1509 1507 1506 1504 1502 1500 1498 1496 1494 1492
1516 1514 1512 1512 1516 1518 1520 1529 1537 1533 1539 1536 1530 1533 1525 1510 1509 1509 1510 1512 1514 1515 1516 1517 1517 1517 1517 1516 1515 1514 1513 1511 1510 1509 1507 1505 1503 1500 1498 1496 1493 1491 1489 1487
1519 1519 1511 1511 1512 1518 1520 1525 1536 1538 1540 1539 1531 1531 1516 1508 1506 1504 1507 1510 1513 1515 1516 1516 1517 1517 1516 1515 1515 1513 1512 1510 1509 1507 1504 1502 1499 1497 1494 1491 1489 1486 1483 1481
1518 1517 1510 1509 1510 1513 1521 1524 1526 1537 1539 1542 1535 1526 1513 1506 1505 1505 1506 1509 1511 1513 1514 1515 1515 1515 1515 1515 1514 1512 1510 1508 1506 1504 1501 1498 1496 1493 1490 1487 1484 1481 1478 1475
1508 1513 1510 1510 1511 1514 1515 1522 1531 1536 1538 1539 1534 1528 1519 1507 1506 1507 1507 1508 1510 1511 1512 1513 1514 1514 1514 1513 1512 1510 1508 1506 1503 1500 1498 1495 1492 1489 1486 1482 1479 1476 1473 1469
1504 1511 1513 1512 1513 1514 1519 1521 1525 1534 1536 1540 1538 1525 1507 1504 1503 1505 1505 1506 1508 1509 1510 1511 1512 1512 1511 1511 1509 1507 1505 1502 1500 1497 1494 1491 1487 1484 1481 1477 1474 1470 1466 1462
1503 1511 1516 1512 1509 1509 1512 1515 1522 1528 1531 1538 1539 1524 1500 1500 1500 1502 1504 1505 1506 1507 1509 1509 1510 1510 1509 1508 1506 1504 1501 1498 1495 1492 1489 1486 1482 1479 1475 1471 1467 1463 1459 1454
1500 1509 1517 1514 1516 1513 1512 1513 1516 1520 1527 1538 1536 1517 1501 1499 1499 1501 1502 1503 1505 1506 1507 1507 1507 1507 1506 1504 1502 1500 1497 1494 1491 1487 1484 1480 1477 1473 1468 1464 1460 1455 1450 1446
1494 1504 1509 1512 1508 1507 1509 1510 1514 1518 1524 1528 1522 1507 1501 1499 1499 1500 1501 1502 1503 1504 1504 1505 1505 1504 1503 1501 1498 1495 1492 1489 1485 1482 1478 1474 1470 1466 1461 1457 1452 1447 1442 1436
1492 1501 1501 1501 1500 1502 1503 1504 1508 1510 1509 1509 1503 1501 1495 1495 1496 1497 1498 1500 1501 1502 1502 1502 1502 1501 1499 1496 1493 1491 1487 1484 1480 1477 1473 1469 1464 1459 1454 1449 1444 1438 1433 1427
1492 1498 1501 1501 1501 1503 1504 1501 1501 1501 1500 1500 1497 1494 1490 1490 1492 1494 1496 1498 1499 1500 1500 1500 1499 1497 1494 1492 1489 1486 1482 1479 1475 1471 1467 1462 1457 1452 1447 1441 1435 1429 1423 1417
1494 1499 1504 1507 1504 1502 1503 1491 1490 1491 1490 1492 1492 1488 1489 1490 1491 1493 1494 1496 1497 1497 1497 1496 1495 1493 1490 1488 1485 1481 1478 1474 1470 1465 1461 1456 1450 1444 1438 1432 1426 1419 1413 1406
1492 1496 1503 1508 1505 1506 1486 1481 1481 1484 1483 1484 1484 1485 1486 1488 1490 1491 1493 1494 1495 1495 1494 1493 1491 1489 1486 1483 1480 1477 1473 1469 1464 1459 1454 1449 1443 1436 1430 1424 1417 1410 1403 1396
1485 1492 1503 1509 1507 1497 1485 1479 1479 1482 1481 1479 1481 1483 1486 1487 1489 1490 1491 1492 1492 1492 1491 1489 1487 1485 1482 1479 1475 1472 1468 1463 1458 1453 1447 1442 1436 1429 1422 1415 1408 1401 1394 1386
1487 1488 1498 1506 1504 1496 1479 1473 1473 1477 1480 1477 1478 1481 1484 1486 1491 1491 1489 1489 1489 1488 1487 1485 1483 1481 1478 1475 1471 1466 1462 1457 1452 1446 1440 1435 1429 1422 1414 1407 1399 1392 1386 1378
1490 1492 1495 1499 1497 1486 1473 1471 1473 1481 1475 1474 1476 1479 1482 1484 1486 1487 1486 1486 1485 1484 1483 1481 1479 1476 1473 1470 1465 1461 1456 1451 1445 1439 1433 1427 1421 1414 1407 1399 1391 1384 1377 1369
1479 1486 1490 1492 1494 1483 1468 1470 1472 1470 1470 1472 1475 1478 1480 1482 1482 1483 1483 1482 1482 1481 1479 1477 1474 1472 1469 1465 1460 1454 1450 1444 1438 1431 1425 1419 1412 1406 1399 1391 1383 1376 1369 1361
1470 1468 1471 1473 1470 1467 1465 1465 1466 1467 1470 1472 1475 1477 1478 1479 1479 1480 1480 1479 1478 1477 1475 1473 1470 1466 1463 1460 1455 1448 1443 1437 1430 1423 1417 1410 1403 1397 1390 1383 1375 1367 1361 1355
1465 1464 1467 1469 1465 1464 1464 1465 1466 1468 1470 1472 1473 1475 1475 1476 1477 1477 1477 1476 1475 1473 1471 1468 1464 1460 1456 1453 1448 1443 1436 1430 1423 1415 1408 1402 1395 1387 1381 1375 1368 1361 1355 1348
1458 1462 1464 1465 1463 1463 1464 1464 1466 1467 1469 1470 1471 1472 1473 1474 1474 1474 1473 1472 1471 1468 1466 1463 1459 1454 1450 1446 1441 1436 1430 1423 1415 1408 1401 1394 1387 1380 1372 1366 1361 1354 1348 1344
1455 1457 1460 1459 1457 1458 1459 1461 1464 1465 1467 1468 1469 1470 1471 1471 1471 1471 1470 1468 1466 1463 1460 1457 1453 1448 1443 1438 1433 1428 1422 1416 1408 1400 1393 1386 1379 1372 1365 1358 1351 1346 1342 1336